TimeCDT,TemperatureF,Dew PointF,Humidity,Sea Level PressureIn,VisibilityMPH,Wind Direction,Wind SpeedMPH,Gust SpeedMPH,PrecipitationIn,Events,Conditions,WindDirDegrees,DateUTC
12:53 AM,81.0,70.0,69,29.84,10.0,South,11.5,-,N/A,,Clear,190,2013-07-23 05:53:00
1:53 AM,79.0,70.0,74,29.85,10.0,South,11.5,-,N/A,,Clear,180,2013-07-23 06:53:00
2:53 AM,79.0,70.0,74,29.85,10.0,SSW,10.4,-,N/A,,Partly Cloudy,210,2013-07-23 07:53:00
3:53 AM,78.1,71.1,79,29.83,10.0,SSW,12.7,-,N/A,,Clear,210,2013-07-23 08:53:00
4:53 AM,78.1,71.1,79,29.84,10.0,SW,9.2,-,N/A,,Clear,220,2013-07-23 09:53:00
5:53 AM,78.1,71.1,79,29.84,10.0,SSW,10.4,-,N/A,,Clear,210,2013-07-23 10:53:00
6:53 AM,78.1,71.1,79,29.85,10.0,SSW,11.5,-,N/A,,Clear,210,2013-07-23 11:53:00
7:53 AM,82.0,71.1,69,29.86,10.0,SW,10.4,-,N/A,,Clear,220,2013-07-23 12:53:00
8:53 AM,84.0,72.0,67,29.87,10.0,SW,11.5,-,N/A,,Clear,220,2013-07-23 13:53:00
9:53 AM,87.1,72.0,61,29.86,10.0,SW,12.7,-,N/A,,Clear,230,2013-07-23 14:53:00
10:53 AM,89.1,73.0,59,29.86,10.0,WSW,12.7,-,N/A,,Clear,240,2013-07-23 15:53:00
11:53 AM,90.0,73.9,59,29.86,10.0,West,10.4,-,N/A,,Partly Cloudy,270,2013-07-23 16:53:00
12:53 PM,93.0,73.9,54,29.84,10.0,WSW,6.9,-,N/A,,Clear,240,2013-07-23 17:53:00
1:53 PM,93.0,73.9,54,29.85,10.0,NW,5.8,-,N/A,,Clear,310,2013-07-23 18:53:00
2:53 PM,95.0,73.9,50,29.83,10.0,NW,5.8,-,N/A,,Clear,310,2013-07-23 19:53:00
3:53 PM,96.1,73.0,47,29.82,10.0,West,6.9,-,N/A,,Clear,280,2013-07-23 20:53:00
4:53 PM,97.0,73.0,46,29.80,10.0,WNW,6.9,-,N/A,,Scattered Clouds,286,2013-07-23 21:53:00
5:53 PM,95.0,71.1,46,29.77,10.0,WNW,6.9,-,N/A,,Clear,290,2013-07-23 22:53:00
6:53 PM,93.9,72.0,49,29.78,10.0,Calm,Calm,-,N/A,,Clear,0,2013-07-23 23:53:00
7:53 PM,91.0,73.9,57,29.78,10.0,WSW,3.5,-,N/A,,Clear,250,2013-07-24 00:53:00
8:53 PM,87.1,73.0,63,29.81,10.0,East,4.6,-,N/A,,Scattered Clouds,80,2013-07-24 01:53:00
9:53 PM,84.0,72.0,67,29.79,10.0,ENE,5.8,-,N/A,,Scattered Clouds,60,2013-07-24 02:53:00
10:53 PM,78.1,68.0,71,29.82,10.0,SE,10.4,-,N/A,,Mostly Cloudy,130,2013-07-24 03:53:00
11:53 PM,75.0,68.0,79,29.83,10.0,SE,13.8,23.0,N/A,,Mostly Cloudy,140,2013-07-24 04:53:00